Hourly Weather Roundup
Issued by NWS Central Illinois

Home | Current Version | Previous Version | Text Only | Print | Product List | Glossary On
Versions: 1 2 3 4 5 6 7 8 9 10 11 12 13 14 15 16 17 18 19 20 21 22 23 24 25 26 27 28 29 30 31 32 33 34 35 36 37 38 39 40 41 42 43 44 45 46 47 48 49 50
000
NZUS43 KILX 190110
HWRILX

AREA WEATHER ROUNDUP
NATIONAL WEATHER SERVICE, LINCOLN IL
800 PM CDT FRI APR 18 2014


CITY           SKY/WX    TMP DP  RH WIND       PRES   REMARKS
BLOOMINGTON    CLEAR     54  27  35 NE7       30.25S
CHAMPAIGN      CLEAR     59  28  30 NE6       30.24R
DANVILLE       CLEAR     55  38  51 NE14      30.22R
DECATUR        CLEAR     61  29  29 NE6       30.23R
FLORA          NOT AVBL
GALESBURG      CLEAR     56  31  38 CALM      30.24S
JACKSONVILLE   CLEAR     62  30  29 N3        30.23S
LACON          CLEAR     55  36  49 CALM      30.25S
LAWRENCEVILLE  CLEAR     64  45  49 N6        30.22R
LITCHFIELD     CLEAR     60  38  43 CALM      30.23R
$$


CITY           SKY/WX    TMP DP  RH WIND       PRES   REMARKS
LINCOLN        CLEAR     56  30  37 NE5       30.23R
MACOMB         CLEAR     56  36  46 E7        30.25S
MATTOON        CLEAR     60  40  47 NE5       30.22R
MT CARMEL AP   CLEAR     64  43  45 N3        30.21R
OLNEY-NOBLE AP CLEAR     63  43  48 CALM      30.22S
PARIS          CLEAR     60  38  43 CALM      30.24R
PEORIA         CLEAR     60  28  29 NE5       30.25R
PONTIAC        CLEAR     55  41  58 E14       30.27R
RANTOUL        CLEAR     59  38  44 NE12      30.26R
ROBINSON       CLEAR     64  44  47 N5        30.23R
SPRINGFIELD    CLEAR     60  27  28 NE5       30.23R
TAYLORVILLE    CLEAR     61  32  33 CALM      30.23R
$$

...REGIONAL REPORTS...


CITY           SKY/WX    TMP DP  RH WIND       PRES   REMARKS
CHICAGO O`HARE CLEAR     40  28  62 NE12      30.35R WCI  33
KANKAKEE       CLEAR     44  36  72 NE8       30.31R
MOLINE         CLEAR     54  30  40 E7        30.25R
MOUNT VERNON   CLEAR     57  37  47 CALM      30.23R
PITTSFIELD     CLEAR     62  31  31 NE5       30.23S
QUINCY         CLEAR     60  33  36 NE6       30.21S
ROCKFORD       CLEAR     51  35  54 E14       30.32R
$$


CITY           SKY/WX    TMP DP  RH WIND       PRES   REMARKS
BURLINGTON     CLEAR     60  28  29 NE5       30.22F
CEDAR RAPIDS   CLEAR     53  28  38 E7        30.22F
DES MOINES     PTCLDY    62  33  33 SE10      30.17F
KIRKSVILLE     CLEAR     58  37  45 SE6       30.20F
OTTUMWA        CLEAR     57  31  37 E7        30.21S
ST LOUIS       PTCLDY    65  40  39 E7        30.21S
$$


CITY           SKY/WX    TMP DP  RH WIND       PRES   REMARKS
TERRE HAUTE    CLEAR     61  38  42 N3        30.22R
EVANSVILLE     PTCLDY    65  43  44 N5        30.20S
INDIANAPOLIS   PTCLDY    60  38  43 N7        30.22R
LAFAYETTE      CLEAR     54  34  46 N15G21    30.26R
MADISON        PTCLDY    46  29  51 E9        30.31S
MILWAUKEE      PTCLDY    34  27  75 NE7       30.39S WCI  28
$$




USA.gov is the U.S. government's official web portal to all federal, state and local government web resources and services.